Location: Nairn
(57.5833°N, 3.8667°W)
Time: 01:59:03
(UTC+00:00)

Transit 2A - Pass Details

Date: 26 November 2020
Orbit: 598 x 960 km, 66.7° (Epoch: 20 January)

Event Time Altitude Azimuth Distance (km) Brightness Sun altitude
Rises 20:33:05 0° 249° (WSW) 3,605 10.0 -37.5°
Reaches altitude 10° 20:35:47 10° 255° (WSW) 2,633 9.3 -37.8°
Enters shadow 20:39:14 32° 273° (W) 1,507 7.8 -38.3°
